When you browse on this site, cookies collect data to enhance your experience and personalize the content and advertising you see.
Visit our Privacy Policy to learn more. By continuing to use the site, you agree to this use of cookies and data.
  • In Hungary
  • List of Countries
  • For 7 days
  • Water Temperature
  • Weather Map
  • News
  • Weather Widgets
  • user-avatar
    Login

    Hourly Weather Gamaleevka

    Today, 6 June, Saturday

    Time Temperature Precipitation Wind Pressure Humidity
    00:00 +17°C° 1.1 mm 4 mps 752 mmHg 74%
    01:00 +16°C° 1.1 mm 3 mps 752 mmHg 84%
    02:00 +15°C° 0.3 mm 4 mps 752 mmHg 77%
    03:00 +15°C° 0.3 mm 6 mps 752 mmHg 69%
    04:00 +15°C° 0 mm 6 mps 753 mmHg 52%
    05:00 +15°C° 0.4 mm 6 mps 752 mmHg 56%
    06:00 +16°C° 0.4 mm 6 mps 752 mmHg 59%
    07:00 +16°C° 0.4 mm 6 mps 752 mmHg 63%
    08:00 +16°C° 0.3 mm 6 mps 752 mmHg 63%
    09:00 +17°C° 0.3 mm 7 mps 752 mmHg 64%
    10:00 +17°C° 0.3 mm 7 mps 752 mmHg 64%
    11:00 +20°C° 0.2 mm 7 mps 753 mmHg 63%
    12:00 +22°C° 0.2 mm 7 mps 753 mmHg 61%
    13:00 +23°C° 0.2 mm 6 mps 753 mmHg 60%
    14:00 +23°C° 1.8 mm 6 mps 753 mmHg 61%
    15:00 +23°C° 1.8 mm 5 mps 753 mmHg 63%
    16:00 +23°C° 1.8 mm 4 mps 753 mmHg 64%
    17:00 +22°C° 2 mm 3 mps 753 mmHg 69%
    18:00 +22°C° 2 mm 3 mps 753 mmHg 73%
    19:00 +21°C° 2 mm 2 mps 753 mmHg 77%
    20:00 +20°C° 0.6 mm 2 mps 753 mmHg 80%
    21:00 +18°C° 0.6 mm 2 mps 753 mmHg 83%
    22:00 +18°C° 0.6 mm 1 mps 754 mmHg 85%
    23:00 +18°C° 0 mm 1 mps 754 mmHg 86%

    Tomorrow, 7 June, Sunday

    Time Temperature Precipitation Wind Pressure Humidity
    00:00 +16°C° 0 mm 1 mps 754 mmHg 86%
    01:00 +16°C° 0 mm 1 mps 754 mmHg 87%
    02:00 +16°C° 0 mm 1 mps 754 mmHg 87%
    03:00 +16°C° 0 mm 2 mps 754 mmHg 87%
    04:00 +15°C° 0 mm 2 mps 755 mmHg 88%
    05:00 +16°C° 0.1 mm 2 mps 754 mmHg 85%
    06:00 +17°C° 0.1 mm 3 mps 754 mmHg 83%
    07:00 +18°C° 0.1 mm 3 mps 754 mmHg 81%
    08:00 +19°C° 1.4 mm 4 mps 754 mmHg 82%
    09:00 +19°C° 1.4 mm 4 mps 755 mmHg 82%
    10:00 +19°C° 1.4 mm 5 mps 755 mmHg 83%
    11:00 +19°C° 0.9 mm 4 mps 755 mmHg 85%
    12:00 +18°C° 0.9 mm 4 mps 755 mmHg 86%
    13:00 +18°C° 0.9 mm 3 mps 755 mmHg 87%
    14:00 +18°C° 0.3 mm 3 mps 755 mmHg 87%
    15:00 +18°C° 0.3 mm 3 mps 755 mmHg 87%
    16:00 +18°C° 0.3 mm 4 mps 755 mmHg 88%
    17:00 +18°C° 0.1 mm 4 mps 754 mmHg 88%
    18:00 +17°C° 0.1 mm 3 mps 754 mmHg 89%
    19:00 +17°C° 0.1 mm 3 mps 754 mmHg 90%
    20:00 +17°C° 0.1 mm 3 mps 754 mmHg 91%
    21:00 +17°C° 0.1 mm 3 mps 754 mmHg 92%
    22:00 +16°C° 0.1 mm 3 mps 754 mmHg 93%
    23:00 +16°C° 0.2 mm 3 mps 754 mmHg 93%

    Day after tomorrow, 8 June, Monday

    Time Temperature Precipitation Wind Pressure Humidity
    00:00 +16°C° 0.2 mm 3 mps 754 mmHg 93%
    01:00 +16°C° 0.2 mm 3 mps 754 mmHg 93%
    02:00 +16°C° 0.2 mm 3 mps 754 mmHg 93%
    03:00 +16°C° 0.2 mm 3 mps 754 mmHg 93%
    04:00 +16°C° 0.2 mm 3 mps 754 mmHg 92%
    05:00 +16°C° 0.2 mm 3 mps 754 mmHg 90%
    06:00 +15°C° 0.2 mm 4 mps 754 mmHg 87%
    07:00 +15°C° 0.2 mm 4 mps 754 mmHg 84%
    08:00 +16°C° 0.1 mm 5 mps 754 mmHg 80%
    09:00 +16°C° 0.1 mm 5 mps 754 mmHg 77%
    10:00 +17°C° 0.1 mm 6 mps 754 mmHg 74%
    11:00 +19°C° 0 mm 6 mps 754 mmHg 68%
    12:00 +21°C° 0 mm 7 mps 754 mmHg 62%
    13:00 +22°C° 0 mm 8 mps 754 mmHg 55%
    14:00 +22°C° 0 mm 7 mps 754 mmHg 55%
    15:00 +23°C° 0 mm 7 mps 754 mmHg 54%
    16:00 +23°C° 0 mm 6 mps 754 mmHg 54%
    17:00 +23°C° 0 mm 6 mps 754 mmHg 56%
    18:00 +23°C° 0 mm 5 mps 754 mmHg 59%
    19:00 +22°C° 0 mm 5 mps 754 mmHg 61%
    20:00 +21°C° 0 mm 5 mps 754 mmHg 62%
    21:00 +20°C° 0 mm 5 mps 754 mmHg 62%
    22:00 +20°C° 0 mm 5 mps 755 mmHg 62%
    23:00 +19°C° 0 mm 5 mps 755 mmHg 62%

    9 June, Tuesday

    Time Temperature Precipitation Wind Pressure Humidity
    00:00 +19°C° 0 mm 5 mps 755 mmHg 61%
    01:00 +17°C° 0 mm 5 mps 755 mmHg 60%
    02:00 +17°C° 0 mm 5 mps 755 mmHg 59%
    03:00 +17°C° 0 mm 6 mps 755 mmHg 58%
    04:00 +16°C° 0 mm 6 mps 755 mmHg 57%
    05:00 +17°C° 0 mm 6 mps 756 mmHg 59%
    06:00 +19°C° 0 mm 6 mps 756 mmHg 60%
    07:00 +18°C° 0 mm 7 mps 756 mmHg 62%
    08:00 +21°C° 0 mm 7 mps 757 mmHg 59%
    09:00 +22°C° 0 mm 7 mps 757 mmHg 57%
    10:00 +23°C° 0 mm 7 mps 757 mmHg 54%
    11:00 +24°C° 0 mm 7 mps 757 mmHg 52%
    12:00 +26°C° 0 mm 7 mps 757 mmHg 50%
    13:00 +26°C° 0 mm 7 mps 757 mmHg 47%
    14:00 +26°C° 0 mm 6 mps 757 mmHg 50%
    15:00 +25°C° 0 mm 5 mps 757 mmHg 54%
    16:00 +25°C° 0 mm 4 mps 757 mmHg 57%
    17:00 +23°C° 0 mm 4 mps 757 mmHg 59%
    18:00 +22°C° 0 mm 4 mps 757 mmHg 62%
    19:00 +22°C° 0 mm 4 mps 757 mmHg 64%
    20:00 +21°C° 0 mm 4 mps 757 mmHg 66%
    21:00 +19°C° 0 mm 4 mps 757 mmHg 69%
    22:00 +18°C° 0 mm 4 mps 757 mmHg 71%
    23:00 +18°C° 0 mm 4 mps 757 mmHg 69%

    10 June, Wednesday

    Time Temperature Precipitation Wind Pressure Humidity
    00:00 +18°C° 0 mm 4 mps 757 mmHg 66%
    01:00 +18°C° 0 mm 4 mps 757 mmHg 64%
    02:00 +17°C° 0 mm 5 mps 757 mmHg 62%
    03:00 +17°C° 0 mm 5 mps 757 mmHg 59%
    04:00 +19°C° 0 mm 5 mps 756 mmHg 57%
    05:00 +19°C° 0 mm 6 mps 757 mmHg 58%
    06:00 +20°C° 0 mm 6 mps 757 mmHg 58%
    07:00 +20°C° 0 mm 6 mps 757 mmHg 59%
    08:00 +22°C° 0 mm 7 mps 757 mmHg 56%
    09:00 +24°C° 0 mm 7 mps 757 mmHg 52%
    10:00 +27°C° 0 mm 7 mps 757 mmHg 49%
    11:00 +28°C° 0 mm 7 mps 757 mmHg 46%
    12:00 +29°C° 0 mm 7 mps 758 mmHg 44%
    13:00 +30°C° 0 mm 7 mps 758 mmHg 41%
    14:00 +30°C° 0 mm 6 mps 757 mmHg 42%
    15:00 +32°C° 0 mm 6 mps 757 mmHg 43%
    16:00 +32°C° 0 mm 6 mps 757 mmHg 44%
    17:00 +30°C° 0 mm 5 mps 757 mmHg 48%
    18:00 +28°C° 0 mm 5 mps 757 mmHg 53%
    19:00 +27°C° 0 mm 5 mps 757 mmHg 58%
    20:00 +26°C° 0 mm 5 mps 757 mmHg 58%
    21:00 +25°C° 0 mm 4 mps 757 mmHg 58%
    22:00 +23°C° 0 mm 4 mps 757 mmHg 57%
    23:00 +22°C° 0.4 mm 5 mps 757 mmHg 60%

    11 June, Thursday

    Time Temperature Precipitation Wind Pressure Humidity
    00:00 +21°C° 0.4 mm 5 mps 757 mmHg 63%
    01:00 +21°C° 0.4 mm 5 mps 757 mmHg 66%
    02:00 +21°C° 0 mm 5 mps 757 mmHg 65%
    03:00 +20°C° 0 mm 4 mps 757 mmHg 64%
    04:00 +20°C° 0 mm 4 mps 757 mmHg 62%
    05:00 +21°C° 0 mm 4 mps 757 mmHg 61%
    06:00 +22°C° 0 mm 4 mps 757 mmHg 60%
    07:00 +23°C° 0 mm 4 mps 757 mmHg 60%
    08:00 +26°C° 0 mm 4 mps 757 mmHg 56%
    09:00 +27°C° 0 mm 4 mps 757 mmHg 53%
    10:00 +29°C° 0 mm 4 mps 757 mmHg 50%
    11:00 +30°C° 0 mm 4 mps 757 mmHg 46%
    12:00 +32°C° 0 mm 4 mps 757 mmHg 42%
    13:00 +33°C° 0 mm 3 mps 757 mmHg 38%
    14:00 +33°C° 0 mm 3 mps 757 mmHg 38%
    15:00 +33°C° 0 mm 3 mps 756 mmHg 38%
    16:00 +33°C° 0 mm 3 mps 756 mmHg 38%
    17:00 +31°C° 0 mm 2 mps 756 mmHg 42%
    18:00 +30°C° 0 mm 2 mps 756 mmHg 46%
    19:00 +29°C° 0 mm 1 mps 756 mmHg 50%
    20:00 +28°C° 0 mm 2 mps 755 mmHg 50%
    21:00 +27°C° 0 mm 2 mps 755 mmHg 50%
    22:00 +25°C° 0 mm 2 mps 755 mmHg 50%
    23:00 +24°C° 0 mm 2 mps 755 mmHg 53%
    Show more